| time (UTC) | temp F | wind direction | speed MPH | gust MPH | rain 1hr in | rain 24hr in | rain mn in | humidity % | barometer mb |
| 20260509200917 | 39 | 89 | 0.0 | 0.0 | 0.00 | 0.01 | 0.00 | 98 | 1027.7 |
| 20260509195417 | 40 | 90 | 0.0 | 0.0 | 0.00 | 0.01 | 0.00 | 99 | 1027.4 |
| 20260509193915 | 42 | 172 | 0.0 | 1.0 | 0.00 | 0.01 | 0.00 | 99 | 1027.2 |
| 20260509192405 | 40 | 101 | 0.0 | 1.0 | 0.00 | 0.01 | 0.00 | 99 | 1027.1 |
| 20260509190905 | 39 | 25 | 0.0 | 0.0 | 0.00 | 0.01 | 0.00 | 98 | 1026.9 |
| 20260509185403 | 38 | 25 | 0.0 | 0.0 | 0.00 | 0.01 | 0.00 | 98 | 1026.8 |
| 20260509183901 | 38 | 25 | 0.0 | 0.0 | 0.00 | 0.01 | 0.00 | 98 | 1026.5 |
| 20260509182357 | 38 | 25 | 0.0 | 0.0 | 0.00 | 0.01 | 0.00 | 98 | 1026.4 |
| 20260509180857 | 38 | 25 | 0.0 | 0.0 | 0.00 | 0.01 | 0.00 | 98 | 1026.4 |
| 20260509175356 | 38 | 25 | 0.0 | 0.0 | 0.00 | 0.01 | 0.00 | 98 | 1026.2 |
| 20260509173856 | 38 | 25 | 0.0 | 0.0 | 0.00 | 0.01 | 0.00 | 98 | 1026.2 |
| 20260509172357 | 39 | 25 | 0.0 | 0.0 | 0.00 | 0.01 | 0.00 | 98 | 1026.3 |
| 20260509170856 | 39 | 25 | 0.0 | 0.0 | 0.00 | 0.01 | 0.00 | 97 | 1026.3 |
| 20260509165356 | 39 | 25 | 0.0 | 0.0 | 0.00 | 0.01 | 0.00 | 98 | 1026.3 |
| 20260509163857 | 40 | 25 | 0.0 | 0.0 | 0.00 | 0.01 | 0.00 | 97 | 1026.3 |
| 20260509162355 | 40 | 25 | 0.0 | 0.0 | 0.00 | 0.01 | 0.00 | 98 | 1026.3 |
| 20260509160854 | 40 | 25 | 0.0 | 0.0 | 0.00 | 0.01 | 0.00 | 98 | 1026.3 |
| 20260509155355 | 40 | 25 | 0.0 | 0.0 | 0.00 | 0.01 | 0.00 | 98 | 1026.3 |
| 20260509153854 | 40 | 25 | 0.0 | 0.0 | 0.00 | 0.01 | 0.00 | 97 | 1026.3 |
| 20260509152351 | 40 | 25 | 0.0 | 0.0 | 0.00 | 0.01 | 0.00 | 97 | 1026.3 |
| 20260509150851 | 41 | 25 | 0.0 | 0.0 | 0.00 | 0.01 | 0.00 | 97 | 1026.2 |
| 20260509145349 | 41 | 25 | 0.0 | 0.0 | 0.00 | 0.01 | 0.00 | 97 | 1026.2 |
| 20260509143847 | 41 | 25 | 0.0 | 0.0 | 0.00 | 0.01 | 0.00 | 97 | 1026.0 |
| 20260509142344 | 41 | 25 | 0.0 | 0.0 | 0.00 | 0.01 | 0.00 | 97 | 1026.1 |
| 20260509140845 | 42 | 25 | 0.0 | 0.0 | 0.00 | 0.01 | 0.00 | 97 | 1026.1 |
| 20260509135343 | 42 | 25 | 0.0 | 0.0 | 0.00 | 0.01 | 0.01 | 97 | 1026.2 |
| 20260509133841 | 41 | 19 | 0.0 | 0.0 | 0.00 | 0.01 | 0.01 | 97 | 1026.3 |
| 20260509132338 | 41 | 19 | 0.0 | 0.0 | 0.00 | 0.01 | 0.01 | 96 | 1026.3 |
| 20260509130836 | 42 | 19 | 0.0 | 0.0 | 0.00 | 0.01 | 0.01 | 97 | 1026.4 |
| 20260509125332 | 42 | 19 | 0.0 | 0.0 | 0.00 | 0.01 | 0.01 | 97 | 1026.5 |
| 20260509123831 | 43 | 19 | 0.0 | 0.0 | 0.00 | 0.01 | 0.01 | 97 | 1026.5 |
| 20260509122328 | 43 | 19 | 0.0 | 0.0 | 0.00 | 0.01 | 0.01 | 96 | 1026.5 |
| 20260509120826 | 43 | 19 | 0.0 | 0.0 | 0.00 | 0.01 | 0.01 | 97 | 1026.5 |
| 20260509115326 | 44 | 19 | 0.0 | 0.0 | 0.00 | 0.01 | 0.01 | 96 | 1026.6 |
| 20260509113827 | 44 | 19 | 0.0 | 0.0 | 0.00 | 0.01 | 0.01 | 96 | 1026.6 |
| 20260509112326 | 44 | 19 | 0.0 | 0.0 | 0.00 | 0.01 | 0.01 | 95 | 1026.5 |
| 20260509110824 | 44 | 19 | 0.0 | 0.0 | 0.00 | 0.01 | 0.01 | 95 | 1026.4 |
| 20260509105323 | 45 | 18 | 0.0 | 0.0 | 0.00 | 0.01 | 0.01 | 95 | 1026.5 |
| 20260509103820 | 45 | 19 | 0.0 | 0.0 | 0.00 | 0.01 | 0.01 | 95 | 1026.3 |
| 20260509102310 | 45 | 19 | 0.0 | 0.0 | 0.00 | 0.01 | 0.01 | 94 | 1026.3 |
| 20260509100810 | 46 | 19 | 0.0 | 0.0 | 0.00 | 0.01 | 0.01 | 95 | 1026.3 |
| 20260509095310 | 46 | 19 | 0.0 | 0.0 | 0.00 | 0.01 | 0.01 | 94 | 1026.2 |
| 20260509093810 | 47 | 19 | 0.0 | 0.0 | 0.00 | 0.01 | 0.01 | 94 | 1026.2 |
| 20260509092307 | 47 | 19 | 0.0 | 0.0 | 0.00 | 0.01 | 0.01 | 93 | 1026.1 |
| 20260509090802 | 48 | 19 | 0.0 | 0.0 | 0.00 | 0.01 | 0.01 | 93 | 1026.0 |
| 20260509085300 | 48 | 18 | 0.0 | 0.0 | 0.00 | 0.01 | 0.01 | 91 | 1025.9 |
| 20260509083801 | 49 | 18 | 0.0 | 0.0 | 0.00 | 0.01 | 0.01 | 91 | 1025.8 |
| 20260509082300 | 50 | 18 | 0.0 | 0.0 | 0.00 | 0.01 | 0.01 | 87 | 1025.5 |
| 20260509080758 | 51 | 18 | 0.0 | 0.0 | 0.00 | 0.01 | 0.01 | 86 | 1025.4 |
| 20260509075254 | 53 | 18 | 0.0 | 0.0 | 0.00 | 0.01 | 0.01 | 85 | 1025.2 |
| 20260509073755 | 55 | 18 | 0.0 | 0.0 | 0.00 | 0.01 | 0.01 | 83 | 1024.9 |
| 20260509072254 | 56 | 18 | 0.0 | 0.0 | 0.00 | 0.01 | 0.01 | 80 | 1024.8 |
| 20260509070754 | 58 | 19 | 0.0 | 0.0 | 0.00 | 0.01 | 0.01 | 73 | 1024.6 |
| 20260509065251 | 61 | 18 | 0.0 | 0.0 | 0.00 | 0.01 | 0.01 | 68 | 1024.6 |
| 20260509063752 | 64 | 19 | 0.0 | 0.0 | 0.00 | 0.01 | 0.01 | 64 | 1024.6 |
| 20260509062253 | 67 | 18 | 0.0 | 0.0 | 0.00 | 0.01 | 0.01 | 60 | 1024.6 |
| 20260509060753 | 66 | 30 | 0.0 | 2.0 | 0.00 | 0.01 | 0.01 | 62 | 1024.4 |
| 20260509055252 | 68 | 235 | 0.0 | 2.0 | 0.00 | 0.01 | 0.01 | 60 | 1024.3 |
| 20260509053752 | 67 | 217 | 0.0 | 2.0 | 0.00 | 0.01 | 0.01 | 60 | 1024.3 |
| 20260509052252 | 65 | 176 | 0.0 | 2.0 | 0.00 | 0.01 | 0.01 | 61 | 1024.2 |
| 20260509050752 | 66 | 72 | 0.0 | 4.0 | 0.00 | 0.01 | 0.01 | 61 | 1024.4 |
| 20260509045252 | 67 | 131 | 0.0 | 4.0 | 0.00 | 0.01 | 0.01 | 59 | 1024.3 |
| 20260509043752 | 68 | 12 | 0.0 | 2.0 | 0.00 | 0.01 | 0.01 | 59 | 1024.3 |
| 20260509042251 | 67 | 153 | 0.0 | 2.0 | 0.00 | 0.01 | 0.01 | 62 | 1024.2 |
| 20260509040751 | 66 | 196 | 0.0 | 3.0 | 0.00 | 0.01 | 0.01 | 60 | 1024.3 |
| 20260509035250 | 66 | 153 | 1.0 | 3.0 | 0.00 | 0.01 | 0.01 | 61 | 1024.4 |
| 20260509033750 | 64 | 271 | 1.0 | 5.0 | 0.00 | 0.01 | 0.01 | 65 | 1024.5 |
| 20260509032250 | 65 | 219 | 1.0 | 3.0 | 0.00 | 0.01 | 0.01 | 62 | 1024.6 |
| 20260509030750 | 64 | 241 | 0.0 | 4.0 | 0.00 | 0.01 | 0.01 | 66 | 1024.8 |
| 20260509025247 | 63 | 122 | 1.0 | 3.0 | 0.00 | 0.01 | 0.01 | 67 | 1025.0 |
| 20260509023747 | 62 | 77 | 1.0 | 3.0 | 0.00 | 0.01 | 0.01 | 71 | 1025.2 |
| 20260509022247 | 62 | 295 | 0.0 | 2.0 | 0.00 | 0.01 | 0.01 | 73 | 1025.6 |
| 20260509020744 | 61 | 146 | 1.0 | 4.0 | 0.00 | 0.01 | 0.01 | 72 | 1025.7 |
| 20260509015244 | 60 | 131 | 1.0 | 3.0 | 0.00 | 0.01 | 0.01 | 75 | 1025.9 |
| 20260509013744 | 59 | 162 | 1.0 | 3.0 | 0.00 | 0.01 | 0.01 | 75 | 1026.0 |
| 20260509010743 | 56 | 150 | 0.0 | 3.0 | 0.00 | 0.01 | 0.01 | 84 | 1026.1 |
| 20260509005240 | 53 | 124 | 1.0 | 3.0 | 0.00 | 0.01 | 0.01 | 87 | 1026.2 |
| 20260509003738 | 52 | 106 | 1.0 | 4.0 | 0.00 | 0.01 | 0.01 | 94 | 1026.2 |
| 20260509002235 | 51 | 214 | 1.0 | 3.0 | 0.00 | 0.01 | 0.01 | 97 | 1026.4 |
| 20260509000733 | 49 | 65 | 0.0 | 2.0 | 0.00 | 0.01 | 0.01 | 98 | 1026.4 |
| 20260508235231 | 48 | 86 | 1.0 | 2.0 | 0.00 | 0.01 | 0.01 | 98 | 1026.3 |
| 20260508233730 | 47 | 159 | 0.0 | 3.0 | 0.00 | 0.01 | 0.01 | 98 | 1026.2 |
| 20260508232229 | 46 | 103 | 1.0 | 4.0 | 0.00 | 0.01 | 0.01 | 98 | 1026.3 |
| 20260508230729 | 46 | 165 | 0.0 | 3.0 | 0.01 | 0.01 | 0.01 | 99 | 1026.3 |
| 20260508225229 | 44 | 225 | 1.0 | 4.0 | 0.01 | 0.01 | 0.01 | 99 | 1026.2 |
| 20260508223730 | 44 | 121 | 0.0 | 2.0 | 0.01 | 0.01 | 0.01 | 99 | 1026.1 |
| 20260508222230 | 43 | 229 | 0.0 | 2.0 | 0.01 | 0.01 | 0.01 | 99 | 1025.9 |
| 20260508220729 | 42 | 30 | 0.0 | 1.0 | 0.00 | 0.00 | 0.00 | 99 | 1025.7 |
| 20260508215229 | 40 | 30 | 0.0 | 0.0 | 0.00 | 0.00 | 0.00 | 99 | 1025.5 |
| 20260508213727 | 38 | 30 | 0.0 | 0.0 | 0.00 | 0.00 | 0.00 | 98 | 1025.3 |
| 20260508212226 | 38 | 30 | 0.0 | 1.0 | 0.00 | 0.00 | 0.00 | 98 | 1025.3 |
| 20260508210719 | 35 | 30 | 0.0 | 0.0 | 0.00 | 0.00 | 0.00 | 97 | 1025.2 |
| 20260508205217 | 36 | 30 | 0.0 | 0.0 | 0.00 | 0.00 | 0.00 | 97 | 1024.9 |
| 20260508203717 | 37 | 30 | 0.0 | 0.0 | 0.00 | 0.00 | 0.00 | 98 | 1024.8 |
| 20260508202215 | 37 | 30 | 0.0 | 0.0 | 0.00 | 0.00 | 0.00 | 98 | 1024.8 |